Find Starlink 30419

NORAD ID: 57845 Int'l Des: 2023-141 Owner: SPXS Country: US Constellation: starlink decayed
LEOCIRCULAR

Re-entered — Feb 26, 2025

Loading 3D Globe...

About Starlink 30419

Starlink 30419 (NORAD 57845) is a starlink constellation satellite (v2 mini) launched Sep 12, 2023 by SPXS of US. It re-entered the atmosphere on Feb 26, 2025. with a mass of 730.00 kg.

About Starlink 30419

Description loading...

Altitude History

Loading altitude history...

Two-Line Element Set

1 57845U 23141F 25057.58612353 .48244651 12339-4 52834-2 0 9992
2 57845 53.1458 191.8732 0005893 336.2966 127.7560 16.36466080 83322
Epoch: Feb 26, 2025 • Age: 11549 hours

Current Status

Position data unavailable
Launch Date Sep 12, 2023
Age 2.7 years
Decay Date Feb 26, 2025
Type internet

Technical Details

Classification Payload
Mass 730.00 kg
Dry Mass 700.00 kg
Total Mass 730.00 kg
Length 0.30 m
Diameter 4.10 m
Span 29.00 m
Shape Box + pan
Manufacturer SPXS
Bus Type Starlink V2M
Phase Status Reentered
Owner/State SPXS/US

Most Searched